Time,TemperatureF,DewpointF,PressureIn,WindDirection,WindDirectionDegrees,WindSpeedMPH,WindSpeedGustMPH,Humidity,HourlyPrecipIn,Conditions,Clouds,dailyrainin,SolarRadiationWatts/m^2,SoftwareType,DateUTC
2013-12-14 00:01:00,35.6,31.5,30.30,West,261,0.0,0.0,85,0.01,,---,0.01,0.00,VWS V14.01,2013-12-14 05:01:00,
2013-12-14 00:06:00,35.6,31.5,30.30,West,261,0.0,0.0,85,0.01,,---,0.01,0.00,VWS V14.01,2013-12-14 05:06:00,
2013-12-14 00:11:00,35.6,31.5,30.30,West,261,0.0,0.0,85,0.01,,---,0.01,0.00,VWS V14.01,2013-12-14 05:11:00,
2013-12-14 00:16:00,35.6,31.5,30.30,West,261,0.0,0.0,85,0.01,,---,0.01,0.00,VWS V14.01,2013-12-14 05:16:00,
2013-12-14 00:21:00,35.6,31.5,30.30,West,261,0.0,0.0,85,0.01,,---,0.01,0.00,VWS V14.01,2013-12-14 05:21:00,
2013-12-14 00:26:00,35.7,31.6,30.30,West,261,0.0,0.0,85,0.01,,---,0.01,0.00,VWS V14.01,2013-12-14 05:26:00,
2013-12-14 00:31:00,35.7,31.6,30.30,West,261,0.0,0.0,85,0.00,,---,0.01,0.00,VWS V14.01,2013-12-14 05:31:00,
2013-12-14 00:36:00,35.7,31.6,30.31,West,261,0.0,0.0,85,0.00,,---,0.01,0.00,VWS V14.01,2013-12-14 05:36:00,
2013-12-14 00:41:00,35.7,31.6,30.30,West,261,0.0,0.0,85,0.00,,---,0.01,0.00,VWS V14.01,2013-12-14 05:41:00,
2013-12-14 00:46:00,35.8,32.0,30.30,West,261,0.0,0.0,86,0.00,,---,0.01,0.00,VWS V14.01,2013-12-14 05:46:00,
2013-12-14 00:51:00,35.8,32.0,30.29,West,261,0.0,0.0,86,0.00,,---,0.01,0.00,VWS V14.01,2013-12-14 05:51:00,
2013-12-14 00:56:00,35.9,32.1,30.29,West,261,0.0,0.0,86,0.00,,---,0.01,0.00,VWS V14.01,2013-12-14 05:56:00,
2013-12-14 01:01:00,35.9,32.1,30.29,West,261,0.0,0.0,86,0.00,,---,0.01,0.00,VWS V14.01,2013-12-14 06:01:00,
2013-12-14 01:06:00,35.9,32.1,30.29,West,261,0.0,0.0,86,0.00,,---,0.01,0.00,VWS V14.01,2013-12-14 06:06:00,
2013-12-14 01:11:00,35.9,32.1,30.29,West,261,0.0,0.0,86,0.00,,---,0.01,0.00,VWS V14.01,2013-12-14 06:11:00,
2013-12-14 01:16:00,35.9,32.1,30.29,West,261,0.0,0.0,86,0.00,,---,0.01,0.00,VWS V14.01,2013-12-14 06:16:00,
2013-12-14 01:21:00,35.9,32.1,30.28,West,261,0.0,0.0,86,0.01,,---,0.02,0.00,VWS V14.01,2013-12-14 06:21:00,
2013-12-14 01:26:00,35.9,32.1,30.28,West,261,0.0,0.0,86,0.01,,---,0.02,0.00,VWS V14.01,2013-12-14 06:26:00,
2013-12-14 01:31:00,35.9,32.1,30.28,West,261,0.0,0.0,86,0.01,,---,0.02,0.00,VWS V14.01,2013-12-14 06:31:00,
2013-12-14 01:36:00,36.0,32.2,30.28,West,261,0.0,0.0,86,0.01,,---,0.02,0.00,VWS V14.01,2013-12-14 06:36:00,
2013-12-14 01:41:00,36.1,32.3,30.28,West,261,0.0,0.0,86,0.01,,---,0.02,0.00,VWS V14.01,2013-12-14 06:41:00,
2013-12-14 01:46:00,36.1,32.3,30.27,West,261,0.0,1.0,86,0.01,,---,0.02,0.00,VWS V14.01,2013-12-14 06:46:00,
2013-12-14 01:51:00,36.1,32.3,30.28,West,261,0.0,1.0,86,0.01,,---,0.02,0.00,VWS V14.01,2013-12-14 06:51:00,
2013-12-14 01:56:00,36.1,32.3,30.28,West,261,0.0,1.0,86,0.01,,---,0.02,0.00,VWS V14.01,2013-12-14 06:56:00,
2013-12-14 02:01:00,36.1,32.3,30.27,West,261,0.0,1.0,86,0.01,,---,0.02,0.00,VWS V14.01,2013-12-14 07:01:00,
2013-12-14 02:06:00,36.2,32.4,30.27,West,261,0.0,1.0,86,0.01,,---,0.02,0.00,VWS V14.01,2013-12-14 07:06:00,
2013-12-14 02:11:00,36.2,32.4,30.27,West,261,0.0,1.0,86,0.01,,---,0.02,0.00,VWS V14.01,2013-12-14 07:11:00,
2013-12-14 02:16:00,36.2,32.1,30.28,West,261,0.0,1.0,85,0.01,,---,0.02,0.00,VWS V14.01,2013-12-14 07:16:00,
2013-12-14 02:21:00,36.2,32.1,30.28,West,261,0.0,1.0,85,0.01,,---,0.02,0.00,VWS V14.01,2013-12-14 07:21:00,
2013-12-14 02:26:00,36.2,32.1,30.29,West,261,0.0,1.0,85,0.01,,---,0.02,0.00,VWS V14.01,2013-12-14 07:26:00,
2013-12-14 02:31:00,36.2,32.1,30.29,West,261,0.0,0.0,85,0.00,,---,0.02,0.00,VWS V14.01,2013-12-14 07:31:00,
2013-12-14 02:36:00,36.2,32.1,30.29,West,261,0.0,0.0,85,0.00,,---,0.02,0.00,VWS V14.01,2013-12-14 07:36:00,
2013-12-14 02:41:00,36.2,32.4,30.29,West,261,0.0,0.0,86,0.00,,---,0.02,0.00,VWS V14.01,2013-12-14 07:41:00,
2013-12-14 02:46:00,36.2,32.4,30.29,West,261,0.0,0.0,86,0.00,,---,0.02,0.00,VWS V14.01,2013-12-14 07:46:00,
2013-12-14 02:51:00,36.2,32.4,30.28,West,261,0.0,1.0,86,0.00,,---,0.02,0.00,VWS V14.01,2013-12-14 07:51:00,
2013-12-14 02:56:00,36.2,32.4,30.29,West,261,0.0,1.0,86,0.00,,---,0.02,0.00,VWS V14.01,2013-12-14 07:56:00,
2013-12-14 03:01:00,36.2,32.4,30.29,West,261,0.0,0.0,86,0.00,,---,0.02,0.00,VWS V14.01,2013-12-14 08:01:00,
2013-12-14 03:06:00,36.1,32.3,30.30,West,261,0.0,0.0,86,0.00,,---,0.02,0.00,VWS V14.01,2013-12-14 08:06:00,
2013-12-14 03:11:00,36.2,32.4,30.30,West,261,0.0,0.0,86,0.00,,---,0.02,0.00,VWS V14.01,2013-12-14 08:11:00,
2013-12-14 03:16:00,36.2,32.7,30.29,West,261,0.0,1.0,87,0.00,,---,0.02,0.00,VWS V14.01,2013-12-14 08:16:00,
2013-12-14 03:21:00,36.2,32.7,30.29,West,261,0.0,1.0,87,0.00,,---,0.02,0.00,VWS V14.01,2013-12-14 08:21:00,
2013-12-14 03:26:00,36.2,32.7,30.29,West,261,0.0,1.0,87,0.00,,---,0.02,0.00,VWS V14.01,2013-12-14 08:26:00,
2013-12-14 03:31:00,36.2,32.7,30.30,West,261,0.0,0.0,87,0.00,,---,0.02,0.00,VWS V14.01,2013-12-14 08:31:00,
2013-12-14 03:36:00,36.2,32.7,30.30,West,261,0.0,0.0,87,0.00,,---,0.02,0.00,VWS V14.01,2013-12-14 08:36:00,
2013-12-14 03:41:00,36.2,32.7,30.29,West,261,0.0,0.0,87,0.00,,---,0.02,0.00,VWS V14.01,2013-12-14 08:41:00,
2013-12-14 03:46:00,36.2,32.7,30.29,West,261,0.0,0.0,87,0.00,,---,0.02,0.00,VWS V14.01,2013-12-14 08:46:00,
2013-12-14 03:51:00,36.2,32.7,30.26,NNW,342,2.0,2.0,87,0.01,,---,0.03,0.00,VWS V14.01,2013-12-14 08:51:00,
2013-12-14 03:56:00,36.2,32.7,30.27,NNE,32,0.0,2.0,87,0.01,,---,0.03,0.00,VWS V14.01,2013-12-14 08:56:00,
2013-12-14 04:01:00,36.3,32.8,30.27,NNE,32,0.0,0.0,87,0.01,,---,0.03,0.00,VWS V14.01,2013-12-14 09:01:00,
2013-12-14 04:05:00,36.3,32.8,30.27,NNE,32,0.0,0.0,87,0.01,,---,0.03,0.00,VWS V14.01,2013-12-14 09:05:00,
2013-12-14 04:10:00,36.3,32.8,30.27,NNE,32,0.0,0.0,87,0.01,,---,0.03,0.00,VWS V14.01,2013-12-14 09:10:00,
2013-12-14 04:15:00,36.3,32.8,30.28,NNE,32,0.0,0.0,87,0.01,,---,0.03,0.00,VWS V14.01,2013-12-14 09:15:00,
2013-12-14 04:20:00,36.4,32.9,30.28,NNE,32,0.0,0.0,87,0.01,,---,0.03,0.00,VWS V14.01,2013-12-14 09:20:00,
2013-12-14 04:25:00,36.4,32.9,30.28,NNE,32,0.0,0.0,87,0.01,,---,0.03,0.00,VWS V14.01,2013-12-14 09:25:00,
2013-12-14 04:30:00,36.4,32.9,30.27,NNE,32,0.0,0.0,87,0.01,,---,0.03,0.00,VWS V14.01,2013-12-14 09:30:00,
2013-12-14 04:35:00,36.4,33.2,30.27,NNE,32,0.0,0.0,88,0.01,,---,0.03,0.00,VWS V14.01,2013-12-14 09:35:00,
2013-12-14 04:40:00,36.4,33.2,30.27,NNE,32,0.0,0.0,88,0.01,,---,0.03,0.00,VWS V14.01,2013-12-14 09:40:00,
2013-12-14 04:45:00,36.5,33.3,30.28,NNE,32,0.0,0.0,88,0.01,,---,0.03,0.00,VWS V14.01,2013-12-14 09:45:00,
2013-12-14 04:50:00,36.5,33.3,30.27,NNE,32,0.0,1.0,88,0.01,,---,0.03,0.00,VWS V14.01,2013-12-14 09:50:00,
2013-12-14 04:55:00,36.6,33.4,30.27,NNE,32,0.0,1.0,88,0.01,,---,0.03,0.00,VWS V14.01,2013-12-14 09:55:00,
2013-12-14 05:01:00,36.6,33.4,30.27,NNE,32,0.0,1.0,88,0.00,,---,0.03,0.00,VWS V14.01,2013-12-14 10:01:00,
2013-12-14 05:06:00,36.6,33.4,30.26,NNE,32,0.0,1.0,88,0.00,,---,0.03,0.00,VWS V14.01,2013-12-14 10:06:00,
2013-12-14 05:11:00,36.7,33.5,30.27,NNE,32,0.0,1.0,88,0.00,,---,0.03,0.00,VWS V14.01,2013-12-14 10:11:00,
2013-12-14 05:16:00,36.8,33.6,30.27,NNE,32,0.0,1.0,88,0.00,,---,0.03,0.00,VWS V14.01,2013-12-14 10:16:00,
2013-12-14 05:21:00,36.9,33.7,30.26,NNE,32,0.0,1.0,88,0.00,,---,0.03,0.00,VWS V14.01,2013-12-14 10:21:00,
2013-12-14 05:26:00,36.9,33.7,30.26,NNE,32,0.0,1.0,88,0.00,,---,0.03,0.00,VWS V14.01,2013-12-14 10:26:00,
2013-12-14 05:31:00,37.0,34.1,30.25,NNE,32,0.0,1.0,89,0.00,,---,0.03,0.00,VWS V14.01,2013-12-14 10:31:00,
2013-12-14 05:36:00,37.0,34.1,30.25,NNE,32,0.0,1.0,89,0.00,,---,0.03,0.00,VWS V14.01,2013-12-14 10:36:00,
2013-12-14 05:41:00,37.0,33.8,30.25,NNE,32,0.0,1.0,88,0.00,,---,0.03,0.00,VWS V14.01,2013-12-14 10:41:00,
2013-12-14 05:46:00,37.1,33.9,30.25,NNE,32,0.0,1.0,88,0.00,,---,0.03,0.00,VWS V14.01,2013-12-14 10:46:00,
2013-12-14 05:51:00,37.1,33.9,30.25,NNE,32,0.0,1.0,88,0.00,,---,0.03,0.00,VWS V14.01,2013-12-14 10:51:00,
2013-12-14 05:55:00,37.2,34.0,30.26,NNE,32,0.0,1.0,88,0.00,,---,0.03,0.00,VWS V14.01,2013-12-14 10:55:00,
2013-12-14 06:00:00,37.3,34.1,30.26,NNE,32,0.0,0.0,88,0.00,,---,0.03,0.00,VWS V14.01,2013-12-14 11:00:00,
2013-12-14 06:05:00,37.5,34.3,30.25,NNE,32,0.0,1.0,88,0.00,,---,0.03,0.00,VWS V14.01,2013-12-14 11:05:00,
2013-12-14 06:10:00,37.6,34.7,30.25,NNE,32,0.0,1.0,89,0.00,,---,0.03,0.00,VWS V14.01,2013-12-14 11:10:00,
2013-12-14 06:15:00,37.7,34.8,30.24,NNE,32,0.0,1.0,89,0.00,,---,0.03,0.00,VWS V14.01,2013-12-14 11:15:00,
2013-12-14 06:20:00,37.7,34.8,30.24,NNE,32,0.0,1.0,89,0.00,,---,0.03,0.00,VWS V14.01,2013-12-14 11:20:00,
2013-12-14 06:25:00,37.7,34.8,30.23,NNE,32,0.0,1.0,89,0.00,,---,0.03,0.00,VWS V14.01,2013-12-14 11:25:00,
2013-12-14 06:30:00,37.8,34.9,30.23,NNE,32,0.0,1.0,89,0.00,,---,0.03,0.00,VWS V14.01,2013-12-14 11:30:00,
2013-12-14 06:35:00,37.7,34.8,30.23,NNE,32,0.0,1.0,89,0.00,,---,0.03,0.00,VWS V14.01,2013-12-14 11:35:00,
2013-12-14 06:40:00,37.7,34.8,30.23,NNE,32,0.0,1.0,89,0.00,,---,0.03,0.00,VWS V14.01,2013-12-14 11:40:00,
2013-12-14 06:45:00,37.7,34.8,30.23,NNE,32,1.0,1.0,89,0.00,,---,0.03,0.00,VWS V14.01,2013-12-14 11:45:00,
2013-12-14 06:50:00,37.7,34.8,30.23,NNE,32,0.0,1.0,89,0.00,,---,0.03,0.00,VWS V14.01,2013-12-14 11:50:00,
2013-12-14 06:55:00,37.8,34.9,30.23,NNE,32,0.0,1.0,89,0.00,,---,0.03,0.00,VWS V14.01,2013-12-14 11:55:00,
2013-12-14 07:01:00,37.8,34.9,30.23,NNE,32,0.0,0.0,89,0.00,,---,0.03,0.00,VWS V14.01,2013-12-14 12:01:00,
2013-12-14 07:06:00,37.8,35.1,30.24,NNE,32,0.0,0.0,90,0.00,,---,0.03,0.00,VWS V14.01,2013-12-14 12:06:00,
2013-12-14 07:10:00,37.8,35.1,30.24,NNE,32,0.0,0.0,90,0.00,,---,0.03,0.00,VWS V14.01,2013-12-14 12:10:00,
2013-12-14 07:15:00,37.7,34.8,30.24,NNE,32,0.0,0.0,89,0.00,,---,0.03,0.00,VWS V14.01,2013-12-14 12:15:00,
2013-12-14 07:20:00,37.7,34.8,30.24,NNE,32,0.0,0.0,89,0.00,,---,0.03,0.00,VWS V14.01,2013-12-14 12:20:00,
2013-12-14 07:25:00,37.6,34.7,30.24,NNE,32,0.0,0.0,89,0.00,,---,0.03,5.00,VWS V14.01,2013-12-14 12:25:00,
2013-12-14 07:31:00,37.4,34.5,30.24,NNE,32,0.0,0.0,89,0.00,,---,0.03,12.00,VWS V14.01,2013-12-14 12:31:00,
2013-12-14 07:36:00,37.3,34.6,30.25,NNE,32,0.0,0.0,90,0.01,,---,0.04,19.00,VWS V14.01,2013-12-14 12:36:00,
2013-12-14 07:40:00,37.2,34.5,30.25,NNE,32,0.0,0.0,90,0.01,,---,0.04,21.00,VWS V14.01,2013-12-14 12:40:00,
2013-12-14 07:45:00,37.1,34.4,30.25,NNE,32,0.0,0.0,90,0.01,,---,0.04,19.00,VWS V14.01,2013-12-14 12:45:00,
2013-12-14 07:50:00,37.0,34.3,30.25,NNE,32,0.0,0.0,90,0.01,,---,0.04,19.00,VWS V14.01,2013-12-14 12:50:00,
2013-12-14 07:55:00,37.0,34.6,30.25,NNE,32,0.0,0.0,91,0.01,,---,0.04,21.00,VWS V14.01,2013-12-14 12:55:00,
2013-12-14 08:00:00,37.0,34.6,30.25,NNE,32,0.0,0.0,91,0.01,,---,0.04,25.00,VWS V14.01,2013-12-14 13:00:00,
2013-12-14 08:05:00,37.0,34.6,30.24,NNE,32,0.0,0.0,91,0.01,,---,0.04,25.00,VWS V14.01,2013-12-14 13:05:00,
2013-12-14 08:10:00,37.1,34.7,30.24,NNE,32,0.0,1.0,91,0.01,,---,0.04,18.00,VWS V14.01,2013-12-14 13:10:00,
2013-12-14 08:15:00,37.2,34.8,30.23,NNE,32,0.0,1.0,91,0.01,,---,0.04,46.00,VWS V14.01,2013-12-14 13:15:00,
2013-12-14 08:20:00,37.3,35.2,30.23,NNE,32,0.0,1.0,92,0.01,,---,0.04,44.00,VWS V14.01,2013-12-14 13:20:00,
2013-12-14 08:25:00,37.5,35.4,30.23,NNE,32,0.0,1.0,92,0.01,,---,0.04,26.00,VWS V14.01,2013-12-14 13:25:00,
2013-12-14 08:30:00,37.6,35.5,30.23,NNE,32,0.0,0.0,92,0.01,,---,0.04,33.00,VWS V14.01,2013-12-14 13:30:00,
2013-12-14 08:35:00,37.8,35.7,30.24,NNE,32,0.0,0.0,92,0.01,,---,0.04,25.00,VWS V14.01,2013-12-14 13:35:00,
2013-12-14 08:40:00,37.9,35.8,30.24,NNE,32,0.0,0.0,92,0.01,,---,0.04,25.00,VWS V14.01,2013-12-14 13:40:00,
2013-12-14 08:45:00,38.1,36.0,30.23,NNE,32,0.0,1.0,92,0.01,,---,0.04,35.00,VWS V14.01,2013-12-14 13:45:00,
2013-12-14 08:50:00,38.3,36.2,30.23,NNE,32,0.0,2.0,92,0.01,,---,0.04,37.00,VWS V14.01,2013-12-14 13:50:00,
2013-12-14 08:55:00,38.4,36.0,30.24,NNE,32,0.0,2.0,91,0.01,,---,0.04,35.00,VWS V14.01,2013-12-14 13:55:00,
2013-12-14 09:00:00,38.6,36.2,30.24,NNE,32,0.0,0.0,91,0.00,,---,0.04,44.00,VWS V14.01,2013-12-14 14:00:00,
2013-12-14 09:05:00,38.8,36.4,30.24,NNE,32,0.0,0.0,91,0.00,,---,0.04,28.00,VWS V14.01,2013-12-14 14:05:00,
2013-12-14 09:10:00,38.9,36.5,30.24,NNE,32,0.0,0.0,91,0.00,,---,0.04,35.00,VWS V14.01,2013-12-14 14:10:00,
2013-12-14 09:15:00,39.1,36.4,30.23,NNE,32,0.0,0.0,90,0.00,,---,0.04,44.00,VWS V14.01,2013-12-14 14:15:00,
2013-12-14 09:20:00,39.3,36.3,30.22,NNE,32,0.0,1.0,89,0.00,,---,0.04,67.00,VWS V14.01,2013-12-14 14:20:00,
2013-12-14 09:25:00,39.6,36.3,30.23,NNE,32,0.0,1.0,88,0.00,,---,0.04,72.00,VWS V14.01,2013-12-14 14:25:00,
2013-12-14 09:30:00,39.7,36.2,30.23,NNE,32,0.0,0.0,87,0.00,,---,0.04,42.00,VWS V14.01,2013-12-14 14:30:00,
2013-12-14 09:35:00,39.9,36.3,30.22,NNE,32,0.0,0.0,87,0.00,,---,0.04,21.00,VWS V14.01,2013-12-14 14:35:00,
2013-12-14 09:40:00,40.1,36.0,30.22,NNE,32,0.0,0.0,85,0.00,,---,0.04,26.00,VWS V14.01,2013-12-14 14:40:00,
2013-12-14 09:45:00,40.2,35.8,30.22,NNE,32,0.0,0.0,84,0.00,,---,0.04,40.00,VWS V14.01,2013-12-14 14:45:00,
2013-12-14 09:50:00,40.5,35.5,30.21,NNE,32,0.0,2.0,82,0.00,,---,0.04,63.00,VWS V14.01,2013-12-14 14:50:00,
2013-12-14 09:55:00,40.8,35.4,30.20,NNE,32,0.0,2.0,81,0.00,,---,0.04,60.00,VWS V14.01,2013-12-14 14:55:00,
2013-12-14 10:00:00,41.0,35.0,30.20,NNE,32,0.0,1.0,79,0.00,,---,0.04,62.00,VWS V14.01,2013-12-14 15:00:00,
2013-12-14 10:05:00,41.3,35.6,30.19,NNE,32,0.0,1.0,80,0.00,,---,0.04,107.00,VWS V14.01,2013-12-14 15:05:00,
2013-12-14 10:10:00,41.6,35.9,30.19,NNE,32,0.0,1.0,80,0.00,,---,0.04,113.00,VWS V14.01,2013-12-14 15:10:00,
2013-12-14 10:15:00,41.9,35.9,30.19,NNE,32,0.0,2.0,79,0.00,,---,0.04,116.00,VWS V14.01,2013-12-14 15:15:00,
2013-12-14 10:20:00,42.5,34.5,30.19,ENE,71,0.0,4.0,73,0.00,,---,0.04,160.00,VWS V14.01,2013-12-14 15:20:00,
2013-12-14 10:25:00,42.9,33.8,30.19,ENE,71,0.0,4.0,70,0.00,,---,0.04,84.00,VWS V14.01,2013-12-14 15:25:00,
2013-12-14 10:30:00,43.4,33.9,30.19,ENE,71,0.0,1.0,69,0.00,,---,0.04,77.00,VWS V14.01,2013-12-14 15:30:00,
2013-12-14 10:35:00,43.8,34.7,30.19,ENE,71,0.0,1.0,70,0.00,,---,0.04,91.00,VWS V14.01,2013-12-14 15:35:00,
2013-12-14 10:40:00,44.2,35.0,30.19,ENE,68,1.0,2.0,70,0.00,,---,0.04,102.00,VWS V14.01,2013-12-14 15:40:00,
2013-12-14 10:45:00,44.7,33.3,30.18,ENE,59,0.0,4.0,64,0.00,,---,0.04,72.00,VWS V14.01,2013-12-14 15:45:00,
2013-12-14 10:50:00,44.9,34.2,30.18,ENE,59,0.0,4.0,66,0.00,,---,0.04,69.00,VWS V14.01,2013-12-14 15:50:00,
2013-12-14 10:55:00,45.1,33.7,30.17,East,79,2.0,4.0,64,0.00,,---,0.04,60.00,VWS V14.01,2013-12-14 15:55:00,
2013-12-14 11:00:00,45.3,32.7,30.17,East,82,1.0,2.0,61,0.00,,---,0.04,58.00,VWS V14.01,2013-12-14 16:00:00,
2013-12-14 11:05:00,45.4,33.2,30.16,East,99,0.0,4.0,62,0.00,,---,0.04,53.00,VWS V14.01,2013-12-14 16:05:00,
2013-12-14 11:10:00,45.6,33.3,30.16,NNE,19,0.0,4.0,62,0.00,,---,0.04,69.00,VWS V14.01,2013-12-14 16:10:00,
2013-12-14 11:15:00,45.6,33.3,30.17,NNE,19,0.0,4.0,62,0.00,,---,0.04,63.00,VWS V14.01,2013-12-14 16:15:00,
2013-12-14 11:20:00,45.8,33.5,30.16,ENE,57,0.0,4.0,62,0.00,,---,0.04,63.00,VWS V14.01,2013-12-14 16:20:00,
2013-12-14 11:25:00,45.9,34.8,30.16,ENE,57,0.0,4.0,65,0.00,,---,0.04,54.00,VWS V14.01,2013-12-14 16:25:00,
2013-12-14 11:30:00,46.0,34.5,30.15,ENE,67,2.0,2.0,64,0.00,,---,0.04,67.00,VWS V14.01,2013-12-14 16:30:00,
2013-12-14 11:35:00,46.1,35.4,30.14,ENE,77,0.0,4.0,66,0.00,,---,0.04,70.00,VWS V14.01,2013-12-14 16:35:00,
2013-12-14 11:40:00,46.1,36.1,30.14,East,84,0.0,4.0,68,0.00,,---,0.04,49.00,VWS V14.01,2013-12-14 16:40:00,
2013-12-14 11:45:00,46.1,36.5,30.13,East,84,0.0,4.0,69,0.00,,---,0.04,42.00,VWS V14.01,2013-12-14 16:45:00,
2013-12-14 11:50:00,46.0,36.4,30.14,East,84,0.0,4.0,69,0.00,,---,0.04,26.00,VWS V14.01,2013-12-14 16:50:00,
2013-12-14 11:55:00,45.9,36.3,30.14,East,84,0.0,4.0,69,0.00,,---,0.04,19.00,VWS V14.01,2013-12-14 16:55:00,
2013-12-14 12:00:00,45.8,37.3,30.14,East,84,0.0,0.0,72,0.00,,---,0.04,23.00,VWS V14.01,2013-12-14 17:00:00,
2013-12-14 12:05:00,45.8,38.7,30.13,East,84,0.0,1.0,76,0.01,,---,0.05,40.00,VWS V14.01,2013-12-14 17:05:00,
2013-12-14 12:10:00,45.6,38.8,30.13,East,84,0.0,1.0,77,0.01,,---,0.05,30.00,VWS V14.01,2013-12-14 17:10:00,
2013-12-14 12:15:00,45.5,39.0,30.13,East,84,0.0,1.0,78,0.01,,---,0.05,30.00,VWS V14.01,2013-12-14 17:15:00,
2013-12-14 12:20:00,45.3,39.2,30.13,East,84,0.0,1.0,79,0.01,,---,0.05,28.00,VWS V14.01,2013-12-14 17:20:00,
2013-12-14 12:25:00,45.1,39.3,30.12,East,84,0.0,1.0,80,0.01,,---,0.05,26.00,VWS V14.01,2013-12-14 17:25:00,
2013-12-14 12:30:00,44.7,39.5,30.12,East,84,0.0,0.0,82,0.01,,---,0.05,26.00,VWS V14.01,2013-12-14 17:30:00,
2013-12-14 12:35:00,44.4,39.6,30.11,East,84,0.0,1.0,83,0.01,,---,0.05,21.00,VWS V14.01,2013-12-14 17:35:00,
2013-12-14 12:40:00,44.0,39.5,30.11,East,84,0.0,1.0,84,0.01,,---,0.05,25.00,VWS V14.01,2013-12-14 17:40:00,
2013-12-14 12:45:00,43.6,39.7,30.10,East,84,0.0,1.0,86,0.01,,---,0.05,28.00,VWS V14.01,2013-12-14 17:45:00,
2013-12-14 12:50:00,43.2,39.6,30.09,ESE,103,0.0,5.0,87,0.01,,---,0.05,44.00,VWS V14.01,2013-12-14 17:50:00,
2013-12-14 12:55:00,42.9,39.9,30.08,ENE,74,0.0,5.0,89,0.01,,---,0.05,40.00,VWS V14.01,2013-12-14 17:55:00,
2013-12-14 13:00:00,42.5,39.5,30.07,ESE,102,3.0,4.0,89,0.01,,---,0.05,51.00,VWS V14.01,2013-12-14 18:00:00,
2013-12-14 13:05:00,42.2,39.5,30.06,SE,126,0.0,4.0,90,0.01,,---,0.05,49.00,VWS V14.01,2013-12-14 18:05:00,
2013-12-14 13:10:00,42.1,39.7,30.05,East,79,0.0,4.0,91,0.01,,---,0.05,91.00,VWS V14.01,2013-12-14 18:10:00,
2013-12-14 13:15:00,42.0,39.8,30.04,ENE,78,4.0,6.0,92,0.01,,---,0.05,141.00,VWS V14.01,2013-12-14 18:15:00,
2013-12-14 13:20:00,42.0,39.8,30.02,East,96,1.0,6.0,92,0.01,,---,0.05,123.00,VWS V14.01,2013-12-14 18:20:00,
2013-12-14 13:25:00,42.2,40.3,30.00,ENE,57,2.0,6.0,93,0.01,,---,0.05,100.00,VWS V14.01,2013-12-14 18:25:00,
2013-12-14 13:30:00,42.3,40.4,29.99,ENE,68,3.0,3.0,93,0.00,,---,0.05,79.00,VWS V14.01,2013-12-14 18:30:00,
2013-12-14 13:35:00,42.4,40.5,29.99,East,89,2.0,8.0,93,0.00,,---,0.05,95.00,VWS V14.01,2013-12-14 18:35:00,
2013-12-14 13:40:00,42.5,40.6,29.99,ENE,67,3.0,8.0,93,0.00,,---,0.05,62.00,VWS V14.01,2013-12-14 18:40:00,
2013-12-14 13:45:00,42.5,40.6,29.99,ENE,76,0.0,8.0,93,0.00,,---,0.05,62.00,VWS V14.01,2013-12-14 18:45:00,
2013-12-14 13:50:00,42.4,40.5,29.97,ENE,61,0.0,8.0,93,0.00,,---,0.05,58.00,VWS V14.01,2013-12-14 18:50:00,
2013-12-14 13:55:00,42.5,40.9,29.96,SE,125,4.0,8.0,94,0.00,,---,0.05,51.00,VWS V14.01,2013-12-14 18:55:00,
2013-12-14 14:00:00,42.5,40.9,29.97,North,355,0.0,6.0,94,0.00,,---,0.05,32.00,VWS V14.01,2013-12-14 19:00:00,
2013-12-14 14:05:00,42.5,40.9,29.98,ENE,69,0.0,6.0,94,0.00,,---,0.05,11.00,VWS V14.01,2013-12-14 19:05:00,
2013-12-14 14:10:00,42.5,40.9,29.96,ESE,117,8.0,11.0,94,0.00,,---,0.05,28.00,VWS V14.01,2013-12-14 19:10:00,
2013-12-14 14:15:00,42.5,40.9,29.96,East,88,5.0,11.0,94,0.00,,---,0.05,21.00,VWS V14.01,2013-12-14 19:15:00,
2013-12-14 14:20:00,42.4,40.8,29.95,East,94,5.0,11.0,94,0.00,,---,0.05,25.00,VWS V14.01,2013-12-14 19:20:00,
2013-12-14 14:25:00,42.4,40.8,29.94,East,84,2.0,11.0,94,0.00,,---,0.05,21.00,VWS V14.01,2013-12-14 19:25:00,
2013-12-14 14:30:00,42.5,40.9,29.93,ENE,73,0.0,4.0,94,0.00,,---,0.05,26.00,VWS V14.01,2013-12-14 19:30:00,
2013-12-14 14:35:00,42.5,40.9,29.93,East,83,0.0,4.0,94,0.00,,---,0.05,16.00,VWS V14.01,2013-12-14 19:35:00,
2013-12-14 14:40:00,42.5,40.9,29.93,NE,41,0.0,4.0,94,0.00,,---,0.05,19.00,VWS V14.01,2013-12-14 19:40:00,
2013-12-14 14:45:00,42.6,41.0,29.93,East,92,1.0,4.0,94,0.00,,---,0.05,11.00,VWS V14.01,2013-12-14 19:45:00,
2013-12-14 14:50:00,42.7,41.1,29.94,East,81,0.0,5.0,94,0.00,,---,0.05,11.00,VWS V14.01,2013-12-14 19:50:00,
2013-12-14 14:55:00,42.7,41.1,29.94,East,83,1.0,5.0,94,0.00,,---,0.05,11.00,VWS V14.01,2013-12-14 19:55:00,
2013-12-14 15:00:00,42.7,41.4,29.93,NNE,22,0.0,2.0,95,0.00,,---,0.05,11.00,VWS V14.01,2013-12-14 20:00:00,
2013-12-14 15:05:00,42.7,41.4,29.93,NNE,22,0.0,2.0,95,0.00,,---,0.05,7.00,VWS V14.01,2013-12-14 20:05:00,
2013-12-14 15:10:00,42.7,41.4,29.93,North,5,0.0,5.0,95,0.00,,---,0.05,5.00,VWS V14.01,2013-12-14 20:10:00,
2013-12-14 15:15:00,42.7,41.4,29.94,NNE,20,1.0,5.0,95,0.00,,---,0.05,5.00,VWS V14.01,2013-12-14 20:15:00,
2013-12-14 15:20:00,42.7,41.4,29.94,NNE,25,2.0,6.0,95,0.00,,---,0.05,0.00,VWS V14.01,2013-12-14 20:20:00,
2013-12-14 15:25:00,42.7,41.4,29.94,NE,53,0.0,6.0,95,0.00,,---,0.05,0.00,VWS V14.01,2013-12-14 20:25:00,
2013-12-14 15:30:00,42.7,41.4,29.94,WSW,254,1.0,3.0,95,0.00,,---,0.05,0.00,VWS V14.01,2013-12-14 20:30:00,
2013-12-14 15:35:00,42.6,41.3,29.94,North,5,0.0,6.0,95,0.00,,---,0.05,0.00,VWS V14.01,2013-12-14 20:35:00,
2013-12-14 15:40:00,42.6,41.3,29.93,North,5,0.0,6.0,95,0.00,,---,0.05,0.00,VWS V14.01,2013-12-14 20:40:00,
2013-12-14 15:45:00,42.6,41.3,29.94,North,360,4.0,6.0,95,0.00,,---,0.05,0.00,VWS V14.01,2013-12-14 20:45:00,
2013-12-14 15:50:00,42.6,41.3,29.94,NNW,348,4.0,6.0,95,0.00,,---,0.05,0.00,VWS V14.01,2013-12-14 20:50:00,
2013-12-14 15:55:00,42.5,41.2,29.95,North,360,1.0,6.0,95,0.00,,---,0.05,0.00,VWS V14.01,2013-12-14 20:55:00,
2013-12-14 16:00:00,42.5,41.2,29.95,East,91,1.0,4.0,95,0.00,,---,0.05,7.00,VWS V14.01,2013-12-14 21:00:00,
2013-12-14 16:05:00,42.5,41.2,29.93,East,83,1.0,4.0,95,0.00,,---,0.05,5.00,VWS V14.01,2013-12-14 21:05:00,
2013-12-14 16:10:00,42.5,41.2,29.93,ENE,75,0.0,4.0,95,0.00,,---,0.05,0.00,VWS V14.01,2013-12-14 21:10:00,
2013-12-14 16:15:00,42.5,41.2,29.93,NNE,13,1.0,7.0,95,0.00,,---,0.05,0.00,VWS V14.01,2013-12-14 21:15:00,
2013-12-14 16:20:00,42.4,41.1,29.93,NE,34,1.0,7.0,95,0.00,,---,0.05,0.00,VWS V14.01,2013-12-14 21:20:00,
2013-12-14 16:25:00,42.4,41.1,29.90,East,84,2.0,7.0,95,0.00,,---,0.05,0.00,VWS V14.01,2013-12-14 21:25:00,
2013-12-14 16:30:00,42.3,41.0,29.89,WNW,298,0.0,4.0,95,0.00,,---,0.05,0.00,VWS V14.01,2013-12-14 21:30:00,
2013-12-14 16:35:00,42.2,40.9,29.90,ENE,71,0.0,4.0,95,0.00,,---,0.05,0.00,VWS V14.01,2013-12-14 21:35:00,
2013-12-14 16:40:00,42.2,40.9,29.89,NE,35,0.0,5.0,95,0.00,,---,0.05,0.00,VWS V14.01,2013-12-14 21:40:00,
2013-12-14 16:45:00,42.1,40.8,29.89,East,80,4.0,5.0,95,0.00,,---,0.05,0.00,VWS V14.01,2013-12-14 21:45:00,
2013-12-14 16:50:00,42.1,40.8,29.88,ENE,59,0.0,6.0,95,0.00,,---,0.05,0.00,VWS V14.01,2013-12-14 21:50:00,
2013-12-14 16:55:00,42.0,40.7,29.87,NE,53,2.0,7.0,95,0.00,,---,0.05,0.00,VWS V14.01,2013-12-14 21:55:00,
2013-12-14 17:00:00,41.9,40.6,29.86,NNE,18,2.0,4.0,95,0.00,,---,0.05,0.00,VWS V14.01,2013-12-14 22:00:00,
2013-12-14 17:05:00,41.9,40.6,29.88,ENE,72,0.0,4.0,95,0.00,,---,0.05,0.00,VWS V14.01,2013-12-14 22:05:00,
2013-12-14 17:10:00,41.9,40.8,29.91,West,276,2.0,4.0,96,0.00,,---,0.05,0.00,VWS V14.01,2013-12-14 22:10:00,
2013-12-14 17:15:00,42.0,40.9,29.92,East,97,5.0,13.0,96,0.00,,---,0.05,0.00,VWS V14.01,2013-12-14 22:15:00,
2013-12-14 17:20:00,42.0,40.9,29.92,WNW,286,0.0,13.0,96,0.00,,---,0.05,0.00,VWS V14.01,2013-12-14 22:20:00,
2013-12-14 17:25:00,41.9,40.8,29.91,NNE,27,2.0,13.0,96,0.00,,---,0.05,0.00,VWS V14.01,2013-12-14 22:25:00,
2013-12-14 17:30:00,41.9,40.8,29.92,NE,41,0.0,2.0,96,0.00,,---,0.05,0.00,VWS V14.01,2013-12-14 22:30:00,
2013-12-14 17:35:00,41.9,40.8,29.91,North,355,0.0,4.0,96,0.00,,---,0.05,0.00,VWS V14.01,2013-12-14 22:35:00,
2013-12-14 17:40:00,41.9,40.8,29.91,North,355,0.0,4.0,96,0.00,,---,0.05,0.00,VWS V14.01,2013-12-14 22:40:00,
2013-12-14 17:45:00,41.8,40.8,29.89,ENE,59,0.0,4.0,96,0.00,,---,0.05,0.00,VWS V14.01,2013-12-14 22:45:00,
2013-12-14 17:50:00,41.8,40.8,29.89,ENE,58,1.0,4.0,96,0.00,,---,0.05,0.00,VWS V14.01,2013-12-14 22:50:00,
2013-12-14 17:55:00,41.8,40.8,29.88,NNE,24,0.0,4.0,96,0.00,,---,0.05,0.00,VWS V14.01,2013-12-14 22:55:00,
2013-12-14 18:00:00,41.7,40.7,29.89,NNE,25,0.0,2.0,96,0.00,,---,0.05,0.00,VWS V14.01,2013-12-14 23:00:00,
2013-12-14 18:05:00,41.6,40.5,29.88,NNE,25,0.0,2.0,96,0.00,,---,0.05,0.00,VWS V14.01,2013-12-14 23:05:00,
2013-12-14 18:10:00,41.6,40.5,29.88,North,9,0.0,4.0,96,0.00,,---,0.05,0.00,VWS V14.01,2013-12-14 23:10:00,
2013-12-14 18:15:00,41.5,40.5,29.89,North,9,0.0,4.0,96,0.00,,---,0.05,0.00,VWS V14.01,2013-12-14 23:15:00,
2013-12-14 18:20:00,41.5,40.5,29.87,North,9,0.0,4.0,96,0.00,,---,0.05,0.00,VWS V14.01,2013-12-14 23:20:00,
2013-12-14 18:25:00,41.5,40.5,29.88,North,9,0.0,4.0,96,0.00,,---,0.05,0.00,VWS V14.01,2013-12-14 23:25:00,
2013-12-14 18:30:00,41.4,40.3,29.88,North,350,0.0,4.0,96,0.00,,---,0.05,0.00,VWS V14.01,2013-12-14 23:30:00,
2013-12-14 18:35:00,41.3,40.2,29.88,NNE,22,2.0,7.0,96,0.00,,---,0.05,0.00,VWS V14.01,2013-12-14 23:35:00,
2013-12-14 18:40:00,41.2,40.2,29.87,North,5,1.0,7.0,96,0.00,,---,0.05,0.00,VWS V14.01,2013-12-14 23:40:00,
2013-12-14 18:45:00,41.1,40.0,29.87,NNW,341,1.0,7.0,96,0.00,,---,0.05,0.00,VWS V14.01,2013-12-14 23:45:00,
2013-12-14 18:50:00,41.0,40.0,29.88,NNW,341,1.0,7.0,96,0.00,,---,0.05,0.00,VWS V14.01,2013-12-14 23:50:00,
2013-12-14 18:55:00,40.9,39.8,29.87,NNE,24,0.0,7.0,96,0.00,,---,0.05,0.00,VWS V14.01,2013-12-14 23:55:00,
2013-12-14 19:00:00,40.8,39.8,29.88,West,259,2.0,7.0,96,0.01,,---,0.06,0.00,VWS V14.01,2013-12-15 00:00:00,
2013-12-14 19:05:00,40.7,39.7,29.87,NNE,30,0.0,7.0,96,0.01,,---,0.06,0.00,VWS V14.01,2013-12-15 00:05:00,
2013-12-14 19:10:00,40.7,39.7,29.87,North,5,1.0,7.0,96,0.01,,---,0.06,0.00,VWS V14.01,2013-12-15 00:10:00,
2013-12-14 19:15:00,40.7,39.7,29.85,NNE,15,0.0,7.0,96,0.01,,---,0.06,0.00,VWS V14.01,2013-12-15 00:15:00,
2013-12-14 19:20:00,40.7,39.7,29.86,North,5,0.0,7.0,96,0.01,,---,0.06,0.00,VWS V14.01,2013-12-15 00:20:00,
2013-12-14 19:25:00,40.6,39.5,29.85,NNE,14,0.0,7.0,96,0.01,,---,0.06,0.00,VWS V14.01,2013-12-15 00:25:00,
2013-12-14 19:30:00,40.6,39.5,29.85,NNE,14,1.0,4.0,96,0.01,,---,0.06,0.00,VWS V14.01,2013-12-15 00:30:00,
2013-12-14 19:35:00,40.6,39.5,29.85,NNW,331,0.0,4.0,96,0.01,,---,0.06,0.00,VWS V14.01,2013-12-15 00:35:00,
2013-12-14 19:40:00,40.6,39.5,29.84,NNW,331,0.0,4.0,96,0.01,,---,0.06,0.00,VWS V14.01,2013-12-15 00:40:00,
2013-12-14 19:45:00,40.6,39.5,29.84,NNW,346,0.0,4.0,96,0.01,,---,0.06,0.00,VWS V14.01,2013-12-15 00:45:00,
2013-12-14 19:50:00,40.5,39.5,29.84,NNW,346,0.0,4.0,96,0.01,,---,0.06,0.00,VWS V14.01,2013-12-15 00:50:00,
2013-12-14 19:55:00,40.5,39.5,29.84,North,11,1.0,6.0,96,0.01,,---,0.06,0.00,VWS V14.01,2013-12-15 00:55:00,
2013-12-14 20:00:00,40.5,39.5,29.85,North,11,0.0,1.0,96,0.01,,---,0.06,0.00,VWS V14.01,2013-12-15 01:00:00,
2013-12-14 20:05:00,40.5,39.5,29.84,North,11,0.0,1.0,96,0.01,,---,0.06,0.00,VWS V14.01,2013-12-15 01:05:00,
2013-12-14 20:10:00,40.4,39.3,29.85,North,355,0.0,5.0,96,0.01,,---,0.06,0.00,VWS V14.01,2013-12-15 01:10:00,
2013-12-14 20:15:00,40.4,39.3,29.85,North,355,2.0,5.0,96,0.01,,---,0.06,0.00,VWS V14.01,2013-12-15 01:15:00,
2013-12-14 20:20:00,40.4,39.3,29.84,North,5,2.0,6.0,96,0.01,,---,0.06,0.00,VWS V14.01,2013-12-15 01:20:00,
2013-12-14 20:25:00,40.4,39.3,29.83,North,360,5.0,6.0,96,0.01,,---,0.06,0.00,VWS V14.01,2013-12-15 01:25:00,
2013-12-14 20:30:00,40.3,39.2,29.83,North,350,0.0,2.0,96,0.00,,---,0.06,0.00,VWS V14.01,2013-12-15 01:30:00,
2013-12-14 20:35:00,40.3,39.2,29.82,North,11,2.0,8.0,96,0.00,,---,0.06,0.00,VWS V14.01,2013-12-15 01:35:00,
2013-12-14 20:40:00,40.2,39.2,29.83,North,10,0.0,8.0,96,0.00,,---,0.06,0.00,VWS V14.01,2013-12-15 01:40:00,
2013-12-14 20:45:00,40.2,39.2,29.83,North,349,0.0,8.0,96,0.00,,---,0.06,0.00,VWS V14.01,2013-12-15 01:45:00,
2013-12-14 20:50:00,40.2,39.2,29.82,North,349,4.0,8.0,96,0.00,,---,0.06,0.00,VWS V14.01,2013-12-15 01:50:00,
2013-12-14 20:55:00,40.2,39.2,29.82,North,5,3.0,8.0,96,0.00,,---,0.06,0.00,VWS V14.01,2013-12-15 01:55:00,
2013-12-14 21:00:00,40.1,39.0,29.81,NNE,17,6.0,6.0,96,0.00,,---,0.06,0.00,VWS V14.01,2013-12-15 02:00:00,
2013-12-14 21:05:00,40.1,39.0,29.81,North,360,0.0,7.0,96,0.00,,---,0.06,0.00,VWS V14.01,2013-12-15 02:05:00,
2013-12-14 21:10:00,40.1,39.0,29.81,North,9,1.0,7.0,96,0.00,,---,0.06,0.00,VWS V14.01,2013-12-15 02:10:00,
2013-12-14 21:15:00,40.1,39.0,29.81,North,11,0.0,7.0,96,0.00,,---,0.06,0.00,VWS V14.01,2013-12-15 02:15:00,
2013-12-14 21:20:00,40.0,39.0,29.79,North,11,0.0,7.0,96,0.00,,---,0.06,0.00,VWS V14.01,2013-12-15 02:20:00,
2013-12-14 21:25:00,40.0,38.7,29.81,WNW,295,0.0,7.0,95,0.00,,---,0.06,0.00,VWS V14.01,2013-12-15 02:25:00,
2013-12-14 21:30:00,40.0,38.7,29.82,NW,310,1.0,2.0,95,0.00,,---,0.06,0.00,VWS V14.01,2013-12-15 02:30:00,
2013-12-14 21:35:00,40.0,38.7,29.82,NW,307,1.0,2.0,95,0.00,,---,0.06,0.00,VWS V14.01,2013-12-15 02:35:00,
2013-12-14 21:40:00,39.9,38.8,29.82,North,355,3.0,5.0,96,0.00,,---,0.06,0.00,VWS V14.01,2013-12-15 02:40:00,
2013-12-14 21:45:00,39.8,38.5,29.83,North,349,0.0,6.0,95,0.00,,---,0.06,0.00,VWS V14.01,2013-12-15 02:45:00,
2013-12-14 21:50:00,39.8,38.5,29.85,NNE,18,5.0,7.0,95,0.00,,---,0.06,0.00,VWS V14.01,2013-12-15 02:50:00,
2013-12-14 21:55:00,39.8,38.5,29.84,NNE,15,1.0,7.0,95,0.00,,---,0.06,0.00,VWS V14.01,2013-12-15 02:55:00,
2013-12-14 22:00:00,39.7,38.7,29.83,NNE,18,6.0,6.0,96,0.00,,---,0.06,0.00,VWS V14.01,2013-12-15 03:00:00,
2013-12-14 22:05:00,39.5,38.5,29.82,North,9,6.0,8.0,96,0.00,,---,0.06,0.00,VWS V14.01,2013-12-15 03:05:00,
2013-12-14 22:10:00,39.3,38.3,29.82,NNE,17,1.0,8.0,96,0.00,,---,0.06,0.00,VWS V14.01,2013-12-15 03:10:00,
2013-12-14 22:15:00,39.2,37.9,29.81,NNW,348,0.0,8.0,95,0.00,,---,0.06,0.00,VWS V14.01,2013-12-15 03:15:00,
2013-12-14 22:20:00,39.1,37.8,29.81,North,355,4.0,8.0,95,0.00,,---,0.06,0.00,VWS V14.01,2013-12-15 03:20:00,
2013-12-14 22:25:00,38.9,37.9,29.80,North,360,0.0,8.0,96,0.00,,---,0.06,0.00,VWS V14.01,2013-12-15 03:25:00,
2013-12-14 22:30:00,38.9,37.9,29.80,NNE,19,0.0,2.0,96,0.00,,---,0.06,0.00,VWS V14.01,2013-12-15 03:30:00,
2013-12-14 22:35:00,38.8,37.8,29.80,NNE,19,0.0,2.0,96,0.00,,---,0.06,0.00,VWS V14.01,2013-12-15 03:35:00,
2013-12-14 22:40:00,38.8,37.8,29.80,NNE,19,0.0,2.0,96,0.00,,---,0.06,0.00,VWS V14.01,2013-12-15 03:40:00,
2013-12-14 22:45:00,38.7,37.7,29.79,NNE,19,1.0,2.0,96,0.00,,---,0.06,0.00,VWS V14.01,2013-12-15 03:45:00,
2013-12-14 22:50:00,38.7,37.7,29.80,West,281,2.0,2.0,96,0.00,,---,0.06,0.00,VWS V14.01,2013-12-15 03:50:00,
2013-12-14 22:55:00,38.6,37.6,29.80,WNW,290,0.0,3.0,96,0.00,,---,0.06,0.00,VWS V14.01,2013-12-15 03:55:00,
2013-12-14 23:00:00,38.6,37.6,29.81,WNW,290,0.0,1.0,96,0.00,,---,0.00,0.00,VWS V14.01,2013-12-15 04:00:00,
2013-12-14 23:05:00,38.5,37.5,29.82,WNW,290,1.0,1.0,96,0.00,,---,0.00,0.00,VWS V14.01,2013-12-15 04:05:00,
2013-12-14 23:10:00,38.5,37.5,29.82,NE,36,2.0,2.0,96,0.00,,---,0.00,0.00,VWS V14.01,2013-12-15 04:10:00,
2013-12-14 23:15:00,38.4,37.4,29.81,NNE,22,0.0,4.0,96,0.00,,---,0.00,0.00,VWS V14.01,2013-12-15 04:15:00,
2013-12-14 23:20:00,38.4,37.4,29.81,North,355,1.0,4.0,96,0.00,,---,0.00,0.00,VWS V14.01,2013-12-15 04:20:00,
2013-12-14 23:25:00,38.4,37.4,29.80,North,11,1.0,5.0,96,0.00,,---,0.00,0.00,VWS V14.01,2013-12-15 04:25:00,
2013-12-14 23:30:00,38.3,37.3,29.80,North,9,0.0,5.0,96,0.00,,---,0.00,0.00,VWS V14.01,2013-12-15 04:30:00,
2013-12-14 23:35:00,38.2,37.2,29.80,North,5,2.0,6.0,96,0.00,,---,0.00,0.00,VWS V14.01,2013-12-15 04:35:00,
2013-12-14 23:40:00,38.2,37.2,29.80,North,5,0.0,6.0,96,0.00,,---,0.00,0.00,VWS V14.01,2013-12-15 04:40:00,
2013-12-14 23:45:00,38.2,37.2,29.80,North,360,0.0,6.0,96,0.00,,---,0.00,0.00,VWS V14.01,2013-12-15 04:45:00,
2013-12-14 23:50:00,38.2,37.2,29.79,North,360,0.0,6.0,96,0.00,,---,0.00,0.00,VWS V14.01,2013-12-15 04:50:00,
2013-12-14 23:55:00,38.1,37.1,29.79,WNW,282,0.0,6.0,96,0.00,,---,0.00,0.00,VWS V14.01,2013-12-15 04:55:00,